Time,TemperatureF,DewpointF,PressureIn,WindDirection,WindDirectionDegrees,WindSpeedMPH,WindSpeedGustMPH,Humidity,HourlyPrecipIn,Conditions,Clouds,dailyrainin,SoftwareType,DateUTC
2013-02-28 00:02:00,31.0,30.0,29.57,NW,306,0.0,-999.0,97,-99.99,,,-99.99,,2013-02-28 05:02:00,
2013-02-28 00:11:00,31.0,30.0,29.57,NW,306,0.0,-999.0,97,-99.99,,,-99.99,,2013-02-28 05:11:00,
2013-02-28 00:22:00,31.0,30.0,29.57,NW,313,0.0,-999.0,97,-99.99,,,-99.99,,2013-02-28 05:22:00,
2013-02-28 00:32:00,30.0,29.0,29.56,NW,311,0.0,-999.0,98,-99.99,,,-99.99,,2013-02-28 05:32:00,
2013-02-28 00:42:00,30.0,29.0,29.56,NW,311,0.0,-999.0,98,-99.99,,,-99.99,,2013-02-28 05:42:00,
2013-02-28 00:52:00,30.0,29.0,29.56,NW,311,0.0,-999.0,98,-99.99,,,-99.99,,2013-02-28 05:52:00,
2013-02-28 01:01:00,30.0,29.0,29.56,West,271,0.0,-999.0,98,-99.99,,,-99.99,,2013-02-28 06:01:00,
2013-02-28 01:11:00,30.0,29.0,29.56,West,271,0.0,-999.0,98,-99.99,,,-99.99,,2013-02-28 06:11:00,
2013-02-28 01:22:00,30.0,29.0,29.56,NNW,344,0.0,-999.0,98,-99.99,,,-99.99,,2013-02-28 06:22:00,
2013-02-28 01:32:00,30.0,30.0,29.55,NNW,344,0.0,-999.0,99,-99.99,,,-99.99,,2013-02-28 06:32:00,
2013-02-28 01:42:00,30.0,30.0,29.55,NNW,344,0.0,-999.0,99,-99.99,,,-99.99,,2013-02-28 06:42:00,
2013-02-28 01:52:00,30.0,30.0,29.54,NNW,333,0.0,-999.0,99,-99.99,,,-99.99,,2013-02-28 06:52:00,
2013-02-28 02:01:00,30.0,30.0,29.55,NW,323,0.0,-999.0,99,-99.99,,,-99.99,,2013-02-28 07:01:00,
2013-02-28 02:11:00,30.0,30.0,29.55,NW,323,0.0,-999.0,99,-99.99,,,-99.99,,2013-02-28 07:11:00,
2013-02-28 02:21:00,30.0,30.0,29.55,NW,323,0.0,-999.0,99,-99.99,,,-99.99,,2013-02-28 07:21:00,
2013-02-28 02:32:00,30.0,30.0,29.54,NW,315,0.0,-999.0,99,-99.99,,,-99.99,,2013-02-28 07:32:00,
2013-02-28 02:42:00,30.0,30.0,29.54,NW,315,0.0,-999.0,99,-99.99,,,-99.99,,2013-02-28 07:42:00,
2013-02-28 02:52:00,30.0,30.0,29.53,NW,315,0.0,-999.0,99,-99.99,,,-99.99,,2013-02-28 07:52:00,
2013-02-28 03:01:00,30.0,30.0,29.53,NW,315,0.0,-999.0,99,-99.99,,,-99.99,,2013-02-28 08:01:00,
2013-02-28 03:11:00,30.0,30.0,29.53,NW,315,0.0,-999.0,99,-99.99,,,-99.99,,2013-02-28 08:11:00,
2013-02-28 03:22:00,30.0,30.0,29.52,NW,315,0.0,-999.0,99,-99.99,,,-99.99,,2013-02-28 08:22:00,
2013-02-28 03:32:00,30.0,30.0,29.49,NW,315,0.0,-999.0,99,-99.99,,,-99.99,,2013-02-28 08:32:00,
2013-02-28 03:42:00,30.0,30.0,29.49,NW,315,0.0,-999.0,99,-99.99,,,-99.99,,2013-02-28 08:42:00,
2013-02-28 03:53:00,30.0,30.0,29.50,NW,315,0.0,-999.0,99,-99.99,,,-99.99,,2013-02-28 08:53:00,
2013-02-28 04:03:00,30.0,30.0,29.50,NW,315,0.0,-999.0,99,-99.99,,,-99.99,,2013-02-28 09:03:00,
2013-02-28 04:12:00,30.0,30.0,29.50,NW,315,0.0,-999.0,99,-99.99,,,-99.99,,2013-02-28 09:12:00,
2013-02-28 04:22:00,30.0,30.0,29.49,NW,315,0.0,-999.0,99,-99.99,,,-99.99,,2013-02-28 09:22:00,
2013-02-28 04:32:00,30.0,30.0,29.49,NW,315,0.0,-999.0,99,-99.99,,,-99.99,,2013-02-28 09:32:00,
2013-02-28 04:42:00,30.0,30.0,29.49,NW,315,0.0,-999.0,99,-99.99,,,-99.99,,2013-02-28 09:42:00,
2013-02-28 04:52:00,30.0,30.0,29.49,NW,315,0.0,-999.0,99,-99.99,,,-99.99,,2013-02-28 09:52:00,
2013-02-28 05:02:00,30.0,30.0,29.50,NW,315,0.0,-999.0,99,-99.99,,,-99.99,,2013-02-28 10:02:00,
2013-02-28 05:11:00,30.0,30.0,29.50,NW,315,0.0,-999.0,99,-99.99,,,-99.99,,2013-02-28 10:11:00,
2013-02-28 05:22:00,30.0,30.0,29.50,NW,315,0.0,-999.0,99,-99.99,,,-99.99,,2013-02-28 10:22:00,
2013-02-28 05:32:00,30.0,30.0,29.51,NW,315,0.0,-999.0,99,-99.99,,,-99.99,,2013-02-28 10:32:00,
2013-02-28 05:42:00,30.0,30.0,29.51,NW,315,0.0,-999.0,99,-99.99,,,-99.99,,2013-02-28 10:42:00,
2013-02-28 05:52:00,30.0,30.0,29.52,NW,315,0.0,-999.0,99,-99.99,,,-99.99,,2013-02-28 10:52:00,
2013-02-28 06:02:00,29.0,29.0,29.52,NW,315,0.0,-999.0,99,-99.99,,,-99.99,,2013-02-28 11:02:00,
2013-02-28 06:11:00,29.0,29.0,29.52,NW,315,0.0,-999.0,99,-99.99,,,-99.99,,2013-02-28 11:11:00,
2013-02-28 06:22:00,29.0,29.0,29.52,NW,315,0.0,-999.0,99,-99.99,,,-99.99,,2013-02-28 11:22:00,
2013-02-28 06:32:00,29.0,29.0,29.52,NW,315,0.0,-999.0,99,-99.99,,,-99.99,,2013-02-28 11:32:00,
2013-02-28 06:42:00,29.0,29.0,29.52,NW,315,0.0,-999.0,99,-99.99,,,-99.99,,2013-02-28 11:42:00,
2013-02-28 06:52:00,29.0,29.0,29.52,NW,315,0.0,-999.0,99,-99.99,,,-99.99,,2013-02-28 11:52:00,
2013-02-28 07:02:00,30.0,30.0,29.52,NW,315,0.0,-999.0,99,-99.99,,,-99.99,,2013-02-28 12:02:00,
2013-02-28 07:11:00,30.0,30.0,29.52,NW,315,0.0,-999.0,99,-99.99,,,-99.99,,2013-02-28 12:11:00,
2013-02-28 07:22:00,30.0,30.0,29.53,NW,315,0.0,-999.0,99,-99.99,,,-99.99,,2013-02-28 12:22:00,
2013-02-28 07:32:00,30.0,30.0,29.53,NW,315,0.0,-999.0,99,-99.99,,,-99.99,,2013-02-28 12:32:00,
2013-02-28 07:42:00,30.0,30.0,29.53,NW,315,0.0,-999.0,99,-99.99,,,-99.99,,2013-02-28 12:42:00,
2013-02-28 07:52:00,30.0,30.0,29.52,NW,315,0.0,-999.0,99,-99.99,,,-99.99,,2013-02-28 12:52:00,
2013-02-28 08:02:00,30.0,30.0,29.52,NW,315,0.0,-999.0,99,-99.99,,,-99.99,,2013-02-28 13:02:00,
2013-02-28 08:11:00,31.0,31.0,29.52,NW,315,0.0,-999.0,99,-99.99,,,-99.99,,2013-02-28 13:11:00,
2013-02-28 08:22:00,31.0,31.0,29.52,NW,315,0.0,-999.0,99,-99.99,,,-99.99,,2013-02-28 13:22:00,
2013-02-28 08:32:00,32.0,32.0,29.52,NW,315,0.0,-999.0,99,-99.99,,,-99.99,,2013-02-28 13:32:00,
2013-02-28 08:42:00,32.0,32.0,29.52,NW,315,0.0,-999.0,99,-99.99,,,-99.99,,2013-02-28 13:42:00,
2013-02-28 08:52:00,32.0,32.0,29.54,NW,315,0.0,-999.0,99,-99.99,,,-99.99,,2013-02-28 13:52:00,
2013-02-28 09:01:00,32.0,32.0,29.55,NW,315,0.0,-999.0,99,-99.99,,,-99.99,,2013-02-28 14:01:00,
2013-02-28 09:11:00,32.0,32.0,29.55,NW,315,0.0,-999.0,98,-99.99,,,-99.99,,2013-02-28 14:11:00,
2013-02-28 09:22:00,32.0,32.0,29.55,NW,315,0.0,-999.0,98,-99.99,,,-99.99,,2013-02-28 14:22:00,
2013-02-28 09:32:00,33.0,32.0,29.55,NW,315,0.0,-999.0,97,-99.99,,,-99.99,,2013-02-28 14:32:00,
2013-02-28 09:42:00,34.0,33.0,29.55,NW,315,0.0,-999.0,96,-99.99,,,-99.99,,2013-02-28 14:42:00,
2013-02-28 09:52:00,34.0,33.0,29.55,NW,315,0.0,-999.0,96,-99.99,,,-99.99,,2013-02-28 14:52:00,
2013-02-28 10:02:00,34.0,33.0,29.55,NW,315,0.0,-999.0,95,-99.99,,,-99.99,,2013-02-28 15:02:00,
2013-02-28 10:11:00,34.0,33.0,29.55,NW,315,0.0,-999.0,95,-99.99,,,-99.99,,2013-02-28 15:11:00,
2013-02-28 10:22:00,34.0,33.0,29.55,NW,315,0.0,-999.0,95,-99.99,,,-99.99,,2013-02-28 15:22:00,
2013-02-28 10:32:00,34.0,32.0,29.55,NW,315,0.0,-999.0,94,-99.99,,,-99.99,,2013-02-28 15:32:00,
2013-02-28 10:42:00,34.0,32.0,29.55,NW,315,0.0,-999.0,94,-99.99,,,-99.99,,2013-02-28 15:42:00,
2013-02-28 10:52:00,34.0,32.0,29.55,NW,315,0.0,-999.0,94,-99.99,,,-99.99,,2013-02-28 15:52:00,
2013-02-28 11:02:00,34.0,32.0,29.55,NW,315,0.0,-999.0,94,-99.99,,,-99.99,,2013-02-28 16:02:00,
2013-02-28 11:12:00,34.0,32.0,29.55,NW,315,0.0,-999.0,94,-99.99,,,-99.99,,2013-02-28 16:12:00,
2013-02-28 11:22:00,34.0,32.0,29.55,NW,315,0.0,-999.0,94,-99.99,,,-99.99,,2013-02-28 16:22:00,
2013-02-28 11:32:00,34.0,32.0,29.54,NW,315,0.0,-999.0,94,-99.99,,,-99.99,,2013-02-28 16:32:00,
2013-02-28 11:42:00,34.0,32.0,29.54,NW,315,0.0,-999.0,94,-99.99,,,-99.99,,2013-02-28 16:42:00,
2013-02-28 11:52:00,34.0,32.0,29.54,NW,315,0.0,-999.0,93,-99.99,,,-99.99,,2013-02-28 16:52:00,
2013-02-28 12:02:00,35.0,33.0,29.54,NW,315,0.0,-999.0,93,-99.99,,,-99.99,,2013-02-28 17:02:00,
2013-02-28 12:12:00,36.0,34.0,29.53,NW,315,0.0,-999.0,92,-99.99,,,-99.99,,2013-02-28 17:12:00,
2013-02-28 12:22:00,36.0,34.0,29.53,NW,315,0.0,-999.0,92,-99.99,,,-99.99,,2013-02-28 17:22:00,
2013-02-28 12:32:00,36.0,34.0,29.53,NW,315,0.0,-999.0,91,-99.99,,,-99.99,,2013-02-28 17:32:00,
2013-02-28 12:42:00,36.0,34.0,29.53,NW,315,0.0,-999.0,91,-99.99,,,-99.99,,2013-02-28 17:42:00,
2013-02-28 12:53:00,37.0,35.0,29.52,NW,315,0.0,-999.0,91,-99.99,,,-99.99,,2013-02-28 17:53:00,
2013-02-28 13:02:00,37.0,34.0,29.52,NW,315,0.0,-999.0,90,-99.99,,,-99.99,,2013-02-28 18:02:00,
2013-02-28 13:11:00,38.0,35.0,29.51,NW,315,0.0,-999.0,89,-99.99,,,-99.99,,2013-02-28 18:11:00,
2013-02-28 13:22:00,38.0,35.0,29.51,NW,315,0.0,-999.0,89,-99.99,,,-99.99,,2013-02-28 18:22:00,
2013-02-28 13:32:00,38.0,35.0,29.51,NW,315,0.0,-999.0,89,-99.99,,,-99.99,,2013-02-28 18:32:00,
2013-02-28 13:42:00,38.0,35.0,29.51,NW,315,0.0,-999.0,90,-99.99,,,-99.99,,2013-02-28 18:42:00,
2013-02-28 13:52:00,38.0,35.0,29.51,NW,315,0.0,-999.0,90,-99.99,,,-99.99,,2013-02-28 18:52:00,
2013-02-28 14:02:00,38.0,35.0,29.50,NW,315,0.0,-999.0,90,-99.99,,,-99.99,,2013-02-28 19:02:00,
2013-02-28 14:11:00,38.0,35.0,29.50,NW,315,0.0,-999.0,90,-99.99,,,-99.99,,2013-02-28 19:11:00,
2013-02-28 14:22:00,38.0,35.0,29.50,NW,315,0.0,-999.0,89,-99.99,,,-99.99,,2013-02-28 19:22:00,
2013-02-28 14:32:00,38.0,35.0,29.49,NW,315,0.0,-999.0,89,-99.99,,,-99.99,,2013-02-28 19:32:00,
2013-02-28 14:42:00,38.0,35.0,29.49,NW,315,0.0,-999.0,89,-99.99,,,-99.99,,2013-02-28 19:42:00,
2013-02-28 14:52:00,39.0,36.0,29.49,NW,315,0.0,-999.0,89,-99.99,,,-99.99,,2013-02-28 19:52:00,
2013-02-28 15:01:00,40.0,36.0,29.48,North,360,3.0,-999.0,86,-99.99,,,-99.99,,2013-02-28 20:01:00,
2013-02-28 15:12:00,40.0,36.0,29.48,North,360,3.0,-999.0,86,-99.99,,,-99.99,,2013-02-28 20:12:00,
2013-02-28 15:22:00,39.0,35.0,29.48,North,360,2.0,-999.0,85,-99.99,,,-99.99,,2013-02-28 20:22:00,
2013-02-28 15:32:00,39.0,35.0,29.48,NW,313,3.0,-999.0,87,-99.99,,,-99.99,,2013-02-28 20:32:00,
2013-02-28 15:42:00,39.0,35.0,29.48,NW,313,3.0,-999.0,87,-99.99,,,-99.99,,2013-02-28 20:42:00,
2013-02-28 15:52:00,39.0,35.0,29.48,WNW,289,4.0,-999.0,86,-99.99,,,-99.99,,2013-02-28 20:52:00,
2013-02-28 16:02:00,38.0,35.0,29.49,NW,306,4.0,-999.0,88,-99.99,,,-99.99,,2013-02-28 21:02:00,
2013-02-28 16:11:00,38.0,35.0,29.49,NW,306,4.0,-999.0,88,-99.99,,,-99.99,,2013-02-28 21:11:00,
2013-02-28 16:22:00,38.0,35.0,29.49,NW,312,1.0,-999.0,89,-99.99,,,-99.99,,2013-02-28 21:22:00,
2013-02-28 16:32:00,37.0,34.0,29.50,NW,325,2.0,-999.0,90,-99.99,,,-99.99,,2013-02-28 21:32:00,
2013-02-28 16:42:00,37.0,34.0,29.50,NW,325,2.0,-999.0,90,-99.99,,,-99.99,,2013-02-28 21:42:00,
2013-02-28 16:52:00,37.0,35.0,29.50,NW,304,2.0,-999.0,91,-99.99,,,-99.99,,2013-02-28 21:52:00,
2013-02-28 17:01:00,36.0,34.0,29.50,NW,311,0.0,-999.0,91,-99.99,,,-99.99,,2013-02-28 22:01:00,
2013-02-28 17:11:00,36.0,34.0,29.50,NNW,328,0.0,-999.0,92,-99.99,,,-99.99,,2013-02-28 22:11:00,
2013-02-28 17:22:00,36.0,34.0,29.50,NNW,328,0.0,-999.0,92,-99.99,,,-99.99,,2013-02-28 22:22:00,
2013-02-28 17:32:00,36.0,34.0,29.49,NNW,335,0.0,-999.0,93,-99.99,,,-99.99,,2013-02-28 22:32:00,
2013-02-28 17:42:00,36.0,34.0,29.49,NNW,335,0.0,-999.0,93,-99.99,,,-99.99,,2013-02-28 22:42:00,
2013-02-28 17:52:00,36.0,34.0,29.49,NNW,336,0.0,-999.0,93,-99.99,,,-99.99,,2013-02-28 22:52:00,
2013-02-28 18:01:00,35.0,33.0,29.49,NNW,344,0.0,-999.0,93,-99.99,,,-99.99,,2013-02-28 23:01:00,
2013-02-28 18:11:00,35.0,33.0,29.49,North,354,0.0,-999.0,93,-99.99,,,-99.99,,2013-02-28 23:11:00,
2013-02-28 18:22:00,35.0,33.0,29.49,North,354,0.0,-999.0,93,-99.99,,,-99.99,,2013-02-28 23:22:00,
2013-02-28 18:32:00,35.0,33.0,29.49,North,360,0.0,-999.0,93,-99.99,,,-99.99,,2013-02-28 23:32:00,
2013-02-28 18:42:00,35.0,33.0,29.49,North,360,0.0,-999.0,93,-99.99,,,-99.99,,2013-02-28 23:42:00,
2013-02-28 18:53:00,35.0,33.0,29.50,NW,308,0.0,-999.0,94,-99.99,,,-99.99,,2013-02-28 23:53:00,
2013-02-28 19:02:00,35.0,34.0,29.50,NW,308,0.0,-999.0,95,-99.99,,,-99.99,,2013-03-01 00:02:00,
2013-02-28 19:11:00,35.0,34.0,29.50,NW,308,0.0,-999.0,95,-99.99,,,-99.99,,2013-03-01 00:11:00,
2013-02-28 19:22:00,35.0,34.0,29.50,NW,308,0.0,-999.0,95,-99.99,,,-99.99,,2013-03-01 00:22:00,
2013-02-28 19:32:00,34.0,33.0,29.49,NW,308,0.0,-999.0,96,-99.99,,,-99.99,,2013-03-01 00:32:00,
2013-02-28 19:42:00,34.0,33.0,29.49,NW,308,0.0,-999.0,96,-99.99,,,-99.99,,2013-03-01 00:42:00,
2013-02-28 19:52:00,34.0,33.0,29.49,NW,309,0.0,-999.0,96,-99.99,,,-99.99,,2013-03-01 00:52:00,
2013-02-28 20:01:00,34.0,33.0,29.49,NW,309,0.0,-999.0,96,-99.99,,,-99.99,,2013-03-01 01:01:00,
2013-02-28 20:11:00,33.0,32.0,29.47,NW,309,0.0,-999.0,96,-99.99,,,-99.99,,2013-03-01 01:11:00,
2013-02-28 20:21:00,33.0,32.0,29.47,NW,309,0.0,-999.0,96,-99.99,,,-99.99,,2013-03-01 01:21:00,
2013-02-28 20:32:00,33.0,32.0,29.49,NW,309,0.0,-999.0,97,-99.99,,,-99.99,,2013-03-01 01:32:00,
2013-02-28 20:42:00,33.0,32.0,29.49,NW,309,0.0,-999.0,97,-99.99,,,-99.99,,2013-03-01 01:42:00,
2013-02-28 20:52:00,33.0,32.0,29.49,NW,309,0.0,-999.0,97,-99.99,,,-99.99,,2013-03-01 01:52:00,
2013-02-28 21:01:00,33.0,32.0,29.49,North,353,1.0,-999.0,98,-99.99,,,-99.99,,2013-03-01 02:01:00,
2013-02-28 21:11:00,33.0,32.0,29.49,North,353,1.0,-999.0,98,-99.99,,,-99.99,,2013-03-01 02:11:00,
2013-02-28 21:21:00,33.0,32.0,29.49,North,353,1.0,-999.0,98,-99.99,,,-99.99,,2013-03-01 02:21:00,
2013-02-28 21:32:00,33.0,32.0,29.48,North,353,0.0,-999.0,98,-99.99,,,-99.99,,2013-03-01 02:32:00,
2013-02-28 21:42:00,33.0,32.0,29.48,North,353,0.0,-999.0,98,-99.99,,,-99.99,,2013-03-01 02:42:00,
2013-02-28 21:52:00,33.0,32.0,29.48,North,353,0.0,-999.0,98,-99.99,,,-99.99,,2013-03-01 02:52:00,
2013-02-28 22:02:00,34.0,34.0,29.48,North,353,0.0,-999.0,98,-99.99,,,-99.99,,2013-03-01 03:02:00,
2013-02-28 22:11:00,34.0,34.0,29.48,NNW,329,1.0,-999.0,99,-99.99,,,-99.99,,2013-03-01 03:11:00,
2013-02-28 22:22:00,34.0,34.0,29.48,NNW,329,1.0,-999.0,99,-99.99,,,-99.99,,2013-03-01 03:22:00,
2013-02-28 22:32:00,34.0,34.0,29.48,NNW,329,0.0,-999.0,98,-99.99,,,-99.99,,2013-03-01 03:32:00,
2013-02-28 22:42:00,34.0,34.0,29.48,NNW,329,0.0,-999.0,98,-99.99,,,-99.99,,2013-03-01 03:42:00,
2013-02-28 22:52:00,34.0,34.0,29.48,NNW,329,1.0,-999.0,98,-99.99,,,-99.99,,2013-03-01 03:52:00,
2013-02-28 23:01:00,34.0,34.0,29.48,NNW,329,1.0,-999.0,98,-99.99,,,-99.99,,2013-03-01 04:01:00,
2013-02-28 23:11:00,34.0,34.0,29.48,NNW,329,1.0,-999.0,98,-99.99,,,-99.99,,2013-03-01 04:11:00,
2013-02-28 23:21:00,33.0,32.0,29.48,NNW,329,0.0,-999.0,98,-99.99,,,-99.99,,2013-03-01 04:21:00,
2013-02-28 23:32:00,33.0,33.0,29.48,NNW,329,0.0,-999.0,99,-99.99,,,-99.99,,2013-03-01 04:32:00,
2013-02-28 23:42:00,33.0,33.0,29.48,NNW,329,0.0,-999.0,99,-99.99,,,-99.99,,2013-03-01 04:42:00,
2013-02-28 23:52:00,33.0,33.0,29.48,NNW,329,0.0,-999.0,99,-99.99,,,-99.99,,2013-03-01 04:52:00,